Regional Weather Roundup
Issued by NWS

Home | Current Version | Previous Version | Graphics & Text | Print | Product List | Glossary On
Versions: 1 2 3 4 5 6 7 8 9 10 11 12 13 14 15 16 17 18 19 20 21 22 23 24 25 26 27 28 29 30 31 32 33 34 35 36 37 38 39 40 41 42 43 44 45 46 47 48 49 50
000
ASUS45 KABQ 010701
RWRNM
WEATHER ROUNDUP FOR NEW MEXICO
NATIONAL WEATHER SERVICE ALBUQUERQUE NM
1200 AM MST SUN FEB 01 2015

NOTE: "FAIR" MEANS FEW OR NO CLOUDS BELOW 12,000 FEET AGL WITH NO
       SIGNIFICANT WEATHER OR OBSTRUCTIONS TO VISION.

      THIS PRODUCT IS RELEASED AS TWO VERSIONS.  ONE VERSION NEAR
      THE TOP OF THE HOUR CONTAINING PRELIMINARY DATA FROM ALBUQUERQUE
      AND OTHER STATIONS.  A FINAL VERSION WITH ADDITIONAL DATA IS
      ISSUED ABOUT 10 MINUTES AFTER THE HOUR.

NMZ501-503-504-510>518-010800-
NORTHWEST PLATEAU/NORTHCENTRAL MOUNTAINS

CITY           SKY/WX    TMP DP  RH WIND       PRES   REMARKS
FARMINGTON     CLEAR     32  31  96 SW7       29.99R WCI  26
SANTA FE       CLOUDY    31  30  96 W5        29.95R FOG     WCI  26
TAOS           CLOUDY    30  27  86 N3        29.96S

$$
NMZ402-403-502-505>509-010800-
WESTCENTRAL MOUNTAINS/SOUTHWEST MOUNTAINS

CITY           SKY/WX    TMP DP  RH WIND       PRES   REMARKS
GALLUP         CLOUDY    31  30  96 CALM      30.03R
SILVER CITY    MOCLDY    39  37  93 NW8       29.99S WCI  34

$$
NMZ407-409-411-412-010800-
SOUTHERN DESERTS

CITY           SKY/WX    TMP DP  RH WIND       PRES   REMARKS
DEMING         CLEAR     41  39  93 W5        29.97R
HOLLOMAN AFB   CLOUDY    43  43 100 CALM      29.92R
ALAMOGORDO     CLOUDY    45  45 100 SE3       29.94S
T OR C         MOCLDY    42  42 100 NE5       29.94R

$$
NMZ519>523-010800-
CENTRAL VALLEYS/CENTRAL HIGHLANDS

CITY           SKY/WX    TMP DP  RH WIND       PRES   REMARKS
ALBUQUERQUE    MOCLDY    39  32  76 N14G21    29.98S WCI  31
DOUBLE EAGLE   MOCLDY    35  31  87 NW17      29.98S WCI  24
CLINES CORNERS FOG       31  29  92 NW23G30   29.89R VSB 3/4 WCI  18
BELEN          FAIR      35  34  99 N6        29.98S WCI  30
SOCORRO        NOT AVBL

$$
NMZ524>526-539-540-010800-
SOUTHCENTRAL MOUNTAINS

CITY           SKY/WX    TMP DP  RH WIND       PRES   REMARKS
RUIDOSO        NOT AVBL

$$
NMZ527>531-010800-
NORTHEAST HIGHLANDS/NORTHEAST PLAINS

CITY           SKY/WX    TMP DP  RH WIND       PRES   REMARKS
LAS VEGAS      CLEAR     31  27  85 NW6       29.87R WCI  25
RATON          CLEAR     31  29  92 NE8       29.86S WCI  23
CLAYTON        PTCLDY    35  33  92 NW7       29.85R WCI  29

$$
NMZ532>537-010800-
EASTCENTRAL PLAINS

CITY           SKY/WX    TMP DP  RH WIND       PRES   REMARKS
TUCUMCARI      PTCLDY    34  33  96 N7        29.85R WCI  28
CANNON AFB     NOT AVBL
CLOVIS AIRPORT CLEAR     37  36  93 W10       29.84S WCI  30

$$
NMZ028-029-538-010800-
SOUTHEAST PLAINS

CITY           SKY/WX    TMP DP  RH WIND       PRES   REMARKS
ROSWELL        CLOUDY    43  42  97 S6        29.89S FOG
ARTESIA        FOG       43  43 100 N5        29.91R VSB 1/4
CARLSBAD       MOCLDY    43  42  97 CALM      29.87F
HOBBS          FOG       43  43 100 SW8       29.89F VSB 1/4


$$


USA.gov is the U.S. government's official web portal to all federal, state and local government web resources and services.